GFSMA_sfc_30mbdewp_099.txt.gz
Dewpoint
65 64 64 64 64 64 62 62 62 62 62 62 61 61 60 60 61 61 62 61 61 60 58 56 57 57 57 55 56 54 54 54 55 55 56 55 53 53 53 54 54 53 53
65 64 63 63 63 63 62 62 62 61 62 62 62 60 61 60 60 61 61 61 60 60 58 56 57 56 55 55 56 53 53 55 55 55 55 55 55 54 55 55 54 53 53
65 64 63 62 62 63 63 62 62 61 61 62 61 61 61 61 60 60 60 59 59 59 58 59 57 56 54 55 55 53 54 54 53 55 55 55 55 56 55 54 54 53 52
65 64 63 63 63 63 63 62 61 60 60 60 60 61 60 60 59 59 59 59 59 57 57 57 57 55 56 55 55 54 54 53 53 54 55 55 55 55 55 55 54 53 52
64 64 63 63 63 63 62 62 61 60 59 60 60 60 60 58 57 57 58 58 58 57 57 57 58 57 56 55 55 54 54 54 54 53 54 55 55 55 55 54 54 54 53
64 63 63 63 63 62 62 61 61 61 60 60 59 58 59 58 55 56 56 57 57 56 57 57 58 58 57 58 57 54 54 54 54 55 54 54 55 55 55 54 54 54 54
64 63 63 63 62 62 60 61 60 60 59 60 57 58 58 56 53 55 55 56 55 55 56 58 58 58 58 58 57 55 54 54 55 55 55 55 55 55 55 54 52 52 52
64 63 63 62 62 61 61 60 60 59 59 59 55 55 53 53 52 53 54 54 54 55 56 57 57 57 56 57 57 57 55 55 55 55 56 56 56 56 55 54 54 54 53
63 62 63 62 62 61 60 60 60 59 57 59 58 53 50 48 49 52 53 54 54 54 55 56 56 56 56 56 56 57 56 56 57 57 57 57 57 57 57 55 55 55 54
63 62 62 62 62 61 60 60 60 59 58 56 58 57 52 49 47 48 52 53 54 54 54 55 55 55 55 55 55 55 56 55 55 57 58 58 58 58 58 57 57 57 57
63 62 62 62 61 61 60 60 60 59 58 57 56 55 51 50 49 47 47 50 53 54 54 53 55 54 54 54 54 54 54 54 54 55 56 58 59 59 59 58 58 58 58
61 61 61 61 61 61 60 60 60 59 58 57 58 56 51 48 48 48 47 49 49 51 52 53 53 54 53 54 54 54 53 52 52 53 54 55 57 59 60 60 59 59 59
59 60 61 61 61 60 60 60 60 59 58 57 57 56 53 51 50 48 48 48 48 50 50 51 52 53 52 52 53 54 53 52 52 52 53 53 54 56 57 58 59 60 61
58 58 60 60 60 60 60 60 59 59 59 58 57 57 55 53 51 50 50 48 48 49 50 50 53 52 54 53 53 52 53 52 51 52 52 53 53 54 55 55 56 56 57
59 60 60 60 60 60 60 59 59 59 59 58 57 57 57 55 54 53 52 51 48 47 48 51 51 53 53 54 54 53 53 52 51 51 51 52 52 53 53 54 54 55 55
57 57 59 59 59 59 59 59 59 59 58 58 57 57 57 56 55 55 54 53 51 48 48 50 51 55 55 55 55 55 55 54 53 52 51 51 51 52 52 53 53 53 53
56 56 56 57 58 58 59 58 58 58 58 57 57 57 56 56 54 54 53 54 52 50 46 49 50 54 55 55 55 56 57 56 56 53 52 51 51 51 50 50 50 50 50
56 56 56 56 57 58 58 58 58 58 57 57 57 57 56 56 55 53 51 51 53 52 50 47 50 51 51 54 54 54 54 54 54 54 53 51 49 49 47 45 45 45 45
56 56 56 55 55 57 58 58 58 57 57 57 57 56 56 55 54 53 53 53 53 53 52 50 48 51 51 52 52 52 53 54 54 52 44 42 41 40 40 40 41 41 42
55 55 55 54 54 54 56 57 56 57 56 56 56 56 56 55 54 54 54 53 53 52 52 52 50 50 50 51 51 50 50 53 53 45 42 40 39 39 39 39 39 39 39
55 55 54 54 54 53 52 54 54 55 54 54 54 55 54 54 54 54 54 54 53 53 53 52 51 50 50 50 50 52 52 53 42 44 42 40 38 36 37 37 37 36 36
55 55 54 54 48 43 43 50 54 53 53 53 53 53 54 53 53 50 47 47 51 53 52 51 50 50 50 49 45 47 48 48 47 36 41 35 35 33 34 35 35 35 34
42 42 41 41 39 39 39 44 51 53 52 52 52 52 52 45 48 41 38 38 37 37 41 49 51 45 44 38 38 41 43 43 41 33 36 33 33 30 33 34 33 32 31
36 35 35 36 36 36 40 42 43 40 37 35 36 38 41 40 40 39 37 34 32 32 32 33 33 31 31 32 35 37 37 33 31 29 31 32 30 29 31 31 30 30 29
31 31 32 32 33 33 36 36 36 34 32 32 32 34 35 37 37 36 33 31 29 30 32 32 31 31 31 32 35 35 34 34 31 27 28 31 30 29 29 29 30 29 29
29 29 29 30 32 32 34 34 33 32 30 30 30 31 33 34 34 33 31 30 28 28 29 29 29 29 28 28 28 30 32 32 30 27 25 29 29 30 29 30 30 31 29

GFSMA_sfc_30mbdewp_105.txt.gz
Dewpoint
66 66 65 65 64 63 62 62 61 61 62 62 62 62 62 62 62 62 63 63 63 64 63 60 59 58 57 56 57 56 56 56 54 54 54 54 54 55 55 55 55 55 54
66 65 64 64 64 63 62 61 60 59 61 62 61 61 61 62 62 62 63 63 63 63 63 61 60 57 57 56 58 56 56 56 56 55 54 54 55 55 55 55 55 54 54
65 64 64 63 63 63 61 61 60 60 60 61 61 61 61 62 62 62 62 62 62 62 61 61 60 57 57 56 58 56 55 57 57 53 54 54 55 55 55 55 55 55 54
65 64 63 63 63 62 61 60 60 60 60 60 60 61 61 62 62 62 62 62 61 60 59 59 58 58 58 57 58 56 56 57 56 56 55 54 54 55 56 55 55 54 54
64 64 63 63 62 62 61 60 60 59 59 59 60 61 61 61 61 62 61 61 60 59 58 58 58 59 58 58 57 56 56 56 56 56 56 56 55 56 56 56 55 54 54
64 63 63 62 62 61 62 61 60 60 59 59 59 59 60 61 61 61 61 60 59 58 58 57 58 58 58 57 58 56 56 56 56 56 56 55 56 56 56 56 55 55 54
64 64 63 62 62 61 61 61 61 60 59 59 58 58 59 60 60 61 61 60 59 58 57 57 57 54 55 55 57 57 56 57 55 55 56 55 56 54 56 56 56 55 55
64 64 63 62 62 61 61 61 60 59 59 59 57 56 54 55 58 59 60 59 58 57 56 56 57 54 53 55 56 57 56 57 55 54 55 54 55 54 55 56 56 55 55
64 63 63 63 62 62 61 61 60 59 58 59 59 55 52 51 53 57 57 58 58 56 56 56 56 56 56 55 56 56 56 56 56 55 55 56 54 55 56 56 56 56 55
64 64 63 63 63 62 61 61 61 60 59 57 59 58 56 54 52 50 55 56 57 55 55 56 56 56 56 56 56 57 56 55 55 56 56 56 56 56 57 57 57 56 55
64 63 63 63 62 62 62 61 60 60 59 58 58 57 57 55 54 52 51 53 54 55 55 55 56 56 56 56 56 56 56 55 54 55 57 57 57 58 58 58 58 58 57
63 63 63 63 62 62 61 61 61 60 60 59 58 57 56 54 52 52 51 52 52 53 54 55 55 56 56 56 56 55 55 55 54 54 55 57 58 58 57 58 59 59 59
61 62 62 62 62 62 62 61 61 60 60 59 58 58 56 55 53 52 51 52 51 52 53 54 55 55 55 55 55 55 54 53 53 54 54 55 56 57 58 59 59 59 60
61 61 62 62 62 61 61 61 61 60 60 59 58 58 57 55 53 52 52 51 50 50 51 52 54 55 55 55 55 54 54 53 52 52 53 54 54 55 56 57 58 60 60
60 60 61 61 61 61 61 61 60 59 60 59 59 58 57 56 54 54 51 51 49 48 49 51 52 54 54 55 54 54 54 53 52 51 51 52 53 53 53 53 54 55 56
59 59 59 59 59 60 60 60 59 59 59 59 59 58 58 57 55 53 52 51 49 48 47 50 51 52 54 54 54 54 54 53 52 51 50 50 50 51 51 52 52 53 53
59 58 58 58 58 59 60 59 59 59 58 58 58 58 57 57 55 54 54 53 51 49 47 49 51 53 53 53 54 53 54 53 53 50 50 49 49 49 50 50 50 51 51
58 58 58 58 58 58 59 58 58 58 58 58 58 57 57 57 56 55 54 53 52 51 48 47 51 52 53 53 54 54 54 54 55 49 49 49 49 48 48 47 47 46 46
55 55 55 55 56 56 55 56 56 58 58 58 57 57 57 57 56 55 55 54 54 52 51 50 50 52 53 55 54 54 55 52 45 43 42 42 42 42 42 42 42 41 41
55 55 55 55 55 55 54 54 55 56 56 57 58 58 57 57 56 55 54 54 54 53 52 51 51 51 52 53 53 53 53 52 45 41 40 40 40 40 40 40 40 40 39
55 55 55 55 54 51 45 44 48 55 57 57 57 57 58 57 56 56 55 55 54 53 52 51 51 51 51 51 50 51 51 49 43 42 39 38 38 37 38 38 38 38 37
49 49 47 48 45 43 40 43 48 52 55 56 56 57 57 56 55 54 54 54 55 53 52 51 50 50 50 50 51 50 50 47 45 39 37 34 35 34 35 36 36 36 35
40 39 39 39 38 36 37 42 48 46 46 44 47 53 52 49 47 44 43 44 41 44 50 53 51 51 50 49 49 48 48 48 43 34 36 31 33 31 34 35 35 34 33
34 34 34 34 34 34 35 37 40 40 38 37 38 40 46 44 43 42 40 38 36 35 36 40 46 43 41 41 45 45 43 33 31 31 34 31 31 30 32 33 33 32 31
30 30 31 32 32 32 34 35 36 35 34 33 33 35 37 38 38 41 40 36 32 31 32 33 33 33 34 36 37 38 38 38 31 29 30 30 30 29 30 30 32 32 30
29 29 29 30 31 31 33 33 33 32 31 31 32 32 33 34 35 35 35 33 31 29 30 30 29 27 28 30 31 33 36 35 29 28 28 30 30 29 27 30 30 30 29

GFSMA_sfc_30mbdewp_108.txt.gz
Dewpoint
67 67 66 65 65 64 63 63 62 62 62 63 63 63 62 63 62 63 63 64 63 63 64 62 61 60 59 57 56 57 56 57 56 54 54 56 55 55 54 54 54 55 55
66 66 65 65 64 64 62 62 61 61 61 62 62 62 62 62 62 62 61 62 63 63 63 62 61 60 58 56 58 57 56 56 56 55 54 56 55 55 53 54 55 54 55
66 65 64 65 64 63 62 61 60 60 61 61 61 61 61 62 62 61 60 61 62 62 63 62 62 61 59 56 58 57 56 57 56 56 54 55 55 55 54 56 55 54 54
66 65 64 64 64 62 61 61 60 59 59 61 60 60 61 61 61 62 62 62 62 62 62 62 62 60 59 57 57 56 56 57 56 56 54 56 55 56 56 56 55 55 54
65 65 64 64 63 62 61 60 59 59 59 60 60 61 61 61 61 62 62 62 62 62 61 61 60 59 58 58 57 56 56 56 57 55 56 54 55 55 56 56 55 55 55
65 65 64 63 63 62 61 61 60 60 59 59 60 60 61 61 61 61 61 62 61 61 59 59 59 58 58 58 58 58 56 54 56 55 57 56 55 56 56 56 56 55 54
64 64 63 63 62 61 61 61 60 59 59 59 58 58 59 60 61 61 61 61 61 60 59 58 58 58 58 58 57 57 56 56 56 56 56 56 56 56 57 56 56 55 55
64 63 63 62 62 61 61 61 60 59 59 59 56 56 54 56 59 60 61 60 60 59 58 57 57 57 57 57 56 57 57 57 57 56 57 57 56 56 54 56 56 56 56
64 63 63 63 62 62 61 61 61 60 58 59 58 55 53 51 54 57 59 60 60 59 58 57 57 55 53 54 55 56 56 57 59 57 57 57 55 54 54 54 56 56 55
64 64 63 63 62 62 62 61 61 60 59 58 58 58 56 54 52 51 56 57 59 58 58 57 56 56 54 53 54 55 56 55 57 58 56 56 53 53 55 55 56 56 56
64 64 63 63 63 62 62 62 61 60 59 58 58 58 57 55 55 53 51 53 56 57 57 56 56 56 56 55 55 55 54 54 54 56 56 55 55 55 55 56 57 57 57
63 63 63 63 63 62 62 62 61 61 60 59 59 57 57 55 54 53 52 53 53 55 56 56 55 56 56 56 56 55 55 54 54 54 55 56 57 56 55 56 57 58 58
62 63 62 62 62 62 62 62 61 61 60 59 59 58 58 57 55 54 54 53 52 53 54 56 55 56 56 56 56 55 55 54 54 54 54 55 56 57 57 56 56 57 58
61 62 62 62 62 62 62 62 61 61 60 60 59 59 58 58 57 54 53 53 52 52 52 53 55 55 55 56 56 55 55 54 53 53 54 54 54 55 56 57 58 58 59
61 61 61 61 62 62 62 61 61 60 60 60 59 59 58 58 57 56 54 54 52 50 50 52 53 55 55 55 55 55 55 54 53 52 52 53 53 54 54 54 55 56 58
60 61 60 61 61 61 61 61 60 60 60 60 59 59 58 58 57 55 54 54 54 52 49 51 52 54 55 55 55 55 54 54 52 52 51 51 51 52 53 53 53 53 54
59 60 60 59 59 60 60 60 60 60 59 59 58 58 57 58 57 56 55 54 53 52 49 51 52 53 54 54 54 54 55 54 54 51 51 50 50 50 50 51 51 51 51
58 58 58 58 58 58 59 59 59 59 58 58 57 57 57 58 57 57 55 54 53 53 50 48 51 52 52 54 54 53 54 54 53 49 49 48 48 48 48 48 48 48 48
57 58 58 57 57 57 57 57 56 56 57 58 57 57 57 57 57 56 55 54 53 53 52 50 50 52 53 54 53 53 54 48 45 43 43 44 44 44 44 44 43 43 43
56 56 55 55 55 55 55 53 52 52 54 56 56 57 58 57 57 57 55 54 53 53 52 51 51 51 52 54 54 53 50 47 43 41 41 41 41 41 41 41 40 40 40
55 55 55 55 53 49 43 44 47 49 51 53 55 56 56 57 57 57 56 55 54 53 53 52 51 51 51 52 52 53 51 47 43 41 39 38 38 38 39 39 39 38 38
41 43 44 45 43 41 37 40 43 50 49 47 50 56 57 56 56 55 55 55 55 53 52 52 51 51 51 52 52 52 49 46 45 41 38 34 36 35 36 37 37 37 36
34 34 35 37 36 35 35 39 42 44 43 41 41 44 50 52 55 51 47 48 47 50 53 52 52 52 51 51 51 51 50 49 47 38 38 32 34 32 35 36 36 35 33
30 31 31 32 33 33 34 36 38 38 37 35 36 38 41 40 40 44 41 37 34 35 39 44 49 46 46 49 51 50 49 38 33 32 35 32 31 30 32 34 34 33 32
28 29 29 30 30 31 33 34 35 34 33 32 32 33 35 37 38 38 36 34 32 31 32 32 33 33 34 35 39 44 41 40 33 31 32 30 30 29 30 30 32 32 31
29 28 28 28 29 28 31 32 32 32 31 31 31 31 32 33 35 37 35 34 33 31 31 31 30 29 29 30 31 34 38 40 31 30 29 30 29 28 26 30 30 30 29

GFSMA_sfc_30mbdewp_114.txt.gz
Dewpoint
67 66 64 64 64 65 65 64 63 64 64 63 62 62 62 61 60 61 61 64 64 64 65 64 64 63 62 61 60 59 59 58 57 56 55 55 55 56 55 55 54 54 55
65 66 64 64 64 65 65 65 64 64 64 63 62 62 61 61 61 60 59 63 63 64 64 65 64 63 62 60 60 59 58 58 57 56 57 56 55 56 55 54 55 55 55
65 66 66 64 63 65 65 65 64 64 63 63 62 62 62 61 60 60 60 59 62 63 64 63 65 63 62 60 59 59 57 58 57 56 57 56 56 55 55 54 55 55 55
67 66 66 66 65 66 66 65 64 63 63 63 62 62 62 61 61 60 60 59 58 59 62 62 62 64 62 60 58 57 56 58 58 57 57 57 55 55 55 55 55 55 56
68 66 65 66 66 66 66 64 64 64 62 62 62 62 62 61 61 60 59 59 59 59 60 61 61 60 63 61 59 57 57 57 57 57 56 57 56 56 55 55 55 54 55
66 66 63 65 66 65 65 65 64 63 62 62 61 60 61 61 61 60 60 59 60 61 61 61 63 62 62 61 60 58 57 56 57 56 56 56 56 56 55 55 56 55 56
65 64 63 64 65 65 64 64 64 64 63 63 62 61 61 61 61 59 59 59 60 60 61 62 62 63 62 61 60 60 57 56 57 57 57 57 57 56 56 55 56 56 56
64 64 63 64 65 64 64 64 63 63 63 63 60 59 57 58 59 60 60 60 61 61 62 62 62 62 62 61 58 59 59 57 57 57 58 57 57 56 55 55 56 56 56
63 65 64 64 64 64 63 63 63 62 60 62 61 57 55 52 52 57 59 59 60 61 61 61 61 61 61 62 59 58 59 58 58 58 58 58 57 55 54 55 56 57 56
64 64 64 64 64 64 63 63 63 62 62 59 61 61 56 54 53 52 57 58 60 60 60 61 61 61 61 61 60 56 56 57 58 58 58 59 58 56 54 55 55 56 57
64 64 64 64 64 63 63 63 62 62 62 60 60 59 59 57 56 55 52 54 57 59 60 61 60 60 60 60 60 57 55 56 57 58 59 59 58 56 55 54 56 55 55
63 64 64 64 64 63 63 63 63 62 62 61 60 59 58 57 57 56 54 53 53 55 59 60 60 60 60 60 60 57 54 55 55 57 58 58 58 56 56 54 55 55 55
62 63 63 63 63 63 63 63 62 62 62 61 61 60 58 57 56 55 55 54 54 54 56 58 60 60 59 59 59 57 54 53 54 54 56 57 57 56 56 55 55 55 55
61 62 63 63 63 63 63 63 62 62 62 62 62 61 59 59 57 56 56 54 54 54 55 55 58 59 59 59 59 57 56 52 52 53 54 55 56 56 56 56 55 55 55
61 63 63 63 63 63 63 63 62 62 62 62 61 62 61 60 59 59 58 56 55 52 53 54 55 58 58 59 59 57 56 53 51 50 52 53 54 55 55 55 55 55 54
62 62 62 62 62 62 63 63 62 62 61 62 61 61 61 60 60 60 59 59 57 56 53 54 54 54 58 58 58 58 57 55 51 50 50 51 52 53 53 54 54 55 55
61 62 63 62 62 62 62 62 62 61 61 61 61 61 60 61 60 60 60 59 58 57 55 55 54 55 57 57 57 57 57 57 55 51 50 50 50 51 52 52 53 53 53
62 62 62 61 61 61 61 61 61 60 60 60 60 60 60 60 60 59 59 58 58 57 56 54 55 55 55 57 57 56 56 57 56 53 51 50 50 50 51 51 51 52 52
60 60 61 61 61 60 60 60 60 60 60 60 59 59 58 57 57 57 58 58 58 57 56 55 54 55 55 56 56 56 56 56 55 51 50 50 50 49 50 50 50 50 50
55 52 50 45 44 43 44 48 54 56 56 56 57 57 56 55 55 56 56 56 56 56 56 55 55 54 54 55 55 54 54 56 50 49 46 49 49 48 48 47 48 48 47
40 40 38 38 37 36 36 39 46 51 52 53 54 54 53 52 50 49 50 55 56 56 56 54 54 54 52 52 52 54 53 49 46 46 44 44 44 44 42 43 43 43 42
34 34 34 33 34 34 35 37 42 48 47 45 44 43 45 47 47 44 45 45 47 54 55 54 53 53 52 52 53 53 52 45 44 44 42 39 43 41 41 41 40 39 39
31 31 31 31 31 32 34 36 39 38 37 36 35 35 38 40 41 41 44 43 40 38 40 47 54 53 52 52 53 52 51 48 48 42 40 35 38 36 38 38 38 37 36
29 29 29 29 29 30 32 34 34 33 32 32 31 31 33 35 36 36 40 38 34 33 33 36 40 42 48 53 53 53 51 46 40 40 38 33 34 33 35 35 35 34 33
28 28 27 28 28 28 30 30 30 30 29 28 28 29 29 31 32 35 37 35 33 33 34 33 33 33 33 34 48 53 43 42 35 35 34 32 31 30 31 32 33 32 31
29 28 27 28 27 27 28 28 28 27 26 25 25 26 27 28 29 31 32 33 31 30 30 31 32 32 31 31 32 36 46 45 37 33 33 31 30 29 26 30 31 31 31

GFSMA_sfc_30mbdewp_117.txt.gz
Dewpoint
65 65 63 64 65 64 65 65 64 63 63 61 62 62 62 60 61 58 62 64 65 65 65 65 65 64 64 63 62 61 61 60 58 57 55 55 56 55 54 54 55 53 53
65 64 63 60 62 61 64 64 64 64 64 63 63 62 62 60 61 60 62 64 64 64 65 65 65 64 64 63 62 61 61 60 59 58 56 56 55 55 54 53 53 53 55
66 65 65 61 59 60 65 65 65 65 65 64 63 62 62 61 62 61 59 62 63 63 63 64 64 64 64 63 62 61 60 60 59 58 57 56 55 55 54 53 54 53 53
66 65 66 65 61 61 64 65 65 64 64 63 63 63 63 62 62 61 60 61 62 62 62 64 63 63 60 64 63 62 58 59 58 58 57 56 55 55 55 53 53 53 54
67 65 65 66 66 62 64 64 65 64 63 63 63 63 63 62 61 60 60 61 60 59 59 62 61 60 61 63 63 60 57 56 57 57 57 57 56 55 54 54 53 54 56
67 66 64 65 66 65 65 65 64 65 63 62 62 61 63 62 61 60 60 61 59 60 59 61 60 60 60 62 62 61 58 56 58 57 56 56 57 56 55 54 53 55 56
66 66 65 65 66 65 65 66 64 64 63 63 62 61 62 62 62 60 59 57 59 59 61 61 62 61 61 60 60 63 59 58 58 58 58 57 57 56 55 54 55 55 55
65 66 65 63 66 65 65 65 64 64 64 64 61 60 58 59 60 60 58 57 58 58 60 61 61 61 62 62 61 62 61 59 58 58 58 58 57 56 55 53 55 56 56
65 66 66 64 64 65 64 64 64 63 62 64 63 58 55 51 52 58 59 59 59 61 60 61 62 62 62 62 62 61 60 59 59 59 59 59 58 57 56 54 55 56 56
64 66 66 66 65 65 64 63 64 63 62 61 63 62 58 52 49 50 57 58 59 60 61 62 62 61 61 62 62 61 60 58 58 59 59 59 58 57 56 55 55 56 56
64 65 66 66 65 65 64 63 63 63 63 61 61 61 61 59 57 54 52 55 56 58 59 61 61 61 61 61 62 61 60 58 57 58 59 60 59 58 56 55 55 55 56
62 65 65 65 65 65 64 64 64 63 63 62 61 60 59 58 56 56 55 54 55 56 56 58 61 61 61 61 61 60 59 58 56 57 58 59 59 59 58 56 55 55 56
61 63 64 64 64 65 64 64 63 63 63 62 61 60 60 59 58 56 55 55 53 53 55 57 60 61 61 61 61 60 58 56 55 55 57 58 59 59 58 56 56 55 55
60 63 64 63 64 64 64 64 63 63 63 62 61 61 61 60 59 57 55 54 54 54 54 55 59 60 60 60 60 59 59 57 54 54 56 57 58 58 57 56 56 56 55
59 62 63 63 63 63 63 63 62 62 62 63 62 62 62 61 61 60 58 56 55 53 53 54 55 58 59 59 60 59 59 56 54 53 53 55 56 57 56 56 55 55 55
59 61 63 63 63 63 63 63 62 62 62 62 62 62 62 62 61 61 59 59 58 57 54 54 55 55 59 59 59 59 59 57 54 53 53 52 53 55 55 55 55 55 54
58 60 62 62 62 62 63 62 62 62 61 61 62 62 62 62 61 61 60 60 59 58 56 57 56 56 56 58 58 59 59 58 57 53 51 50 51 52 53 54 54 54 54
58 59 60 61 62 62 62 62 61 61 61 59 61 61 61 61 61 61 61 60 59 59 58 56 56 56 56 57 58 58 58 58 58 56 52 49 49 50 51 52 52 53 53
57 55 58 56 58 60 61 61 61 60 60 61 61 60 60 60 60 59 59 58 58 58 57 56 55 56 57 57 57 57 57 57 58 58 53 50 49 48 49 50 50 50 51
42 42 41 40 40 40 44 50 59 59 59 59 59 59 59 58 56 53 55 56 56 57 57 57 56 55 55 56 56 55 55 56 56 55 52 52 49 48 48 48 49 49 50
36 37 38 38 38 38 38 42 51 53 54 54 50 49 47 46 44 44 46 48 49 51 53 55 54 54 55 54 54 55 54 55 52 48 48 47 49 49 49 47 49 48 48
32 32 33 33 35 35 37 39 45 44 43 41 41 41 42 43 41 43 42 42 41 43 46 50 53 53 53 54 54 54 54 48 46 45 46 43 45 44 44 47 47 46 46
29 30 30 30 30 31 33 34 35 35 34 32 33 35 36 36 36 37 41 43 39 35 35 37 41 46 49 53 54 53 53 51 50 46 43 38 39 38 39 40 41 41 41
28 28 28 28 28 29 31 32 32 32 31 29 29 30 31 32 32 34 39 39 36 34 34 34 33 32 32 33 38 51 53 52 43 43 40 35 34 33 35 37 38 38 38
29 28 28 28 27 28 29 29 29 29 28 27 28 29 28 29 30 32 36 36 33 31 33 32 31 30 31 31 33 42 51 44 38 36 35 33 32 30 31 31 34 34 34
30 30 28 29 28 28 29 28 27 26 25 25 26 26 28 28 28 29 29 30 29 29 29 29 27 28 27 27 28 31 35 45 38 34 34 32 31 30 26 30 31 31 31

GFSMA_sfc_30mbdewp_123.txt.gz
Dewpoint
67 67 67 67 68 68 68 67 67 66 66 65 65 65 64 62 64 64 65 65 66 66 67 65 65 65 64 64 64 64 64 62 61 60 59 58 57 56 55 56 55 55 56
67 67 65 67 67 68 67 68 67 66 65 65 64 64 63 62 64 63 64 65 65 66 67 66 66 65 64 64 64 64 63 62 61 61 59 57 57 56 53 54 54 56 56
66 67 66 66 67 67 67 67 67 66 65 64 64 63 63 62 62 64 63 63 64 65 65 66 66 66 65 65 64 64 63 62 62 61 59 58 57 55 54 53 54 53 56
67 66 66 65 66 66 66 66 66 65 64 64 63 63 62 63 63 62 64 64 64 64 64 65 66 66 65 65 64 63 62 63 62 61 60 58 56 56 54 54 54 53 53
66 67 66 66 66 66 66 65 65 65 64 63 63 62 63 63 63 63 62 64 63 63 63 63 64 65 65 65 64 63 62 62 61 61 60 58 56 55 54 55 54 53 53
65 64 67 65 66 66 65 64 64 65 64 63 63 63 63 63 63 63 62 62 63 63 62 62 63 63 63 63 64 63 62 61 61 61 61 58 57 55 54 54 55 55 54
64 66 65 66 65 64 65 65 64 64 64 64 62 62 62 63 63 63 62 61 61 62 62 62 62 63 62 61 62 63 61 62 62 61 60 59 57 56 55 54 54 55 55
65 65 64 63 66 64 63 65 64 64 64 64 61 60 59 61 62 62 62 62 61 61 62 61 61 61 61 61 61 63 63 62 63 62 61 60 58 56 56 55 54 55 55
60 64 63 63 64 66 63 63 65 63 62 64 62 59 57 55 59 62 62 61 61 61 61 61 60 60 60 59 59 60 61 61 62 63 62 60 59 57 56 55 54 55 55
53 57 63 63 62 64 65 62 65 64 63 61 62 60 58 57 54 55 60 61 60 60 61 61 61 61 60 60 60 59 59 60 60 62 62 60 60 58 57 56 54 55 55
50 53 58 62 64 64 65 64 62 65 63 62 62 61 59 58 57 55 56 58 60 60 60 61 61 62 62 62 62 61 59 58 58 59 60 61 60 59 57 56 55 55 55
46 50 54 59 61 64 63 64 64 64 64 63 62 61 61 58 57 57 55 57 58 59 60 61 61 62 62 62 62 61 60 59 58 58 60 61 61 60 58 57 57 56 55
44 47 52 54 60 61 63 64 64 63 63 62 62 62 62 61 59 58 57 55 56 57 59 60 61 62 62 62 61 61 60 58 58 57 58 59 60 60 59 58 58 57 57
42 45 48 52 57 60 61 62 62 62 60 60 61 61 60 61 61 60 58 56 54 55 56 57 60 61 62 62 61 60 60 58 57 56 56 57 58 59 59 59 58 57 57
41 43 46 49 54 57 60 59 60 60 61 59 59 61 61 60 60 60 60 58 55 52 54 56 56 61 61 61 61 60 59 59 57 56 56 56 56 57 58 58 57 57 57
42 43 45 47 51 55 58 59 59 59 59 62 61 61 61 60 60 60 60 59 58 54 51 55 56 59 61 61 61 60 60 59 57 56 55 55 55 55 56 57 57 56 56
44 45 46 48 51 55 58 58 59 58 59 61 62 61 60 60 59 61 61 60 58 57 54 55 57 58 59 60 60 59 60 59 59 56 55 54 53 54 54 55 56 56 56
45 48 49 50 53 53 54 55 55 54 49 58 61 61 60 60 60 61 61 60 59 59 56 55 57 58 57 58 59 58 59 59 59 58 55 54 53 52 52 52 54 55 55
36 39 40 40 40 42 44 48 51 51 59 60 61 61 60 60 60 60 60 59 59 59 58 57 56 58 57 57 57 58 58 58 59 58 56 54 53 51 50 51 53 53 54
32 32 34 34 34 35 38 43 51 58 58 58 55 55 51 53 57 59 60 59 57 57 57 57 57 56 56 57 57 56 57 58 57 58 57 55 53 51 50 49 50 52 53
31 30 30 31 32 33 33 36 39 40 41 42 41 38 38 39 41 43 49 50 52 52 52 52 52 53 54 55 55 55 55 55 57 57 56 57 54 52 51 48 50 49 50
29 30 29 29 30 31 32 32 32 32 33 34 34 34 35 35 39 37 37 36 37 45 46 47 48 48 49 46 42 44 47 52 52 54 55 55 53 54 54 53 52 50 49
27 26 28 28 29 30 31 31 31 30 30 29 30 31 32 33 36 38 36 34 33 34 34 38 40 37 36 33 33 36 39 40 44 48 47 52 43 47 39 40 40 42 45
25 25 25 26 27 29 31 30 30 29 28 28 28 28 29 29 31 35 33 31 30 31 31 31 30 29 30 30 31 31 32 33 36 39 43 44 37 38 34 34 37 39 41
23 22 23 23 23 27 29 30 29 28 28 27 28 30 28 28 29 30 29 29 27 27 30 30 30 29 29 29 29 30 30 30 35 39 37 41 34 32 31 31 31 34 37
20 20 19 20 22 23 27 29 28 27 26 27 28 29 30 29 30 29 26 25 24 24 25 25 26 26 27 27 27 27 26 27 29 36 33 36 32 32 32 30 30 31 32

GFSMA_sfc_30mbdewp_129.txt.gz
Dewpoint
67 67 67 67 67 67 67 66 66 66 65 65 65 64 64 64 63 63 63 63 64 65 65 66 67 66 66 66 66 66 65 63 63 62 62 62 61 60 58 55 57 59 61
67 67 67 67 67 67 66 66 65 64 64 65 65 65 64 64 63 63 63 63 63 64 65 67 67 66 66 66 66 66 65 64 63 63 62 61 60 59 58 56 55 57 59
65 65 65 67 67 67 66 66 65 65 64 65 64 64 65 64 63 62 63 64 64 64 64 65 66 67 66 66 66 66 65 64 64 63 62 61 60 58 57 55 55 55 56
56 57 65 66 67 66 66 66 65 64 63 64 64 64 64 64 63 63 63 63 64 64 63 64 66 66 66 66 66 65 65 64 64 63 62 61 60 59 57 56 55 54 54
54 57 62 64 64 64 65 66 65 65 63 63 63 63 63 63 63 63 63 63 63 64 64 64 65 65 66 66 66 65 63 63 64 63 62 61 60 59 58 57 56 54 55
52 56 58 58 61 61 64 65 65 65 64 63 62 63 63 63 63 62 62 63 62 63 63 64 64 65 65 65 66 66 64 64 64 63 63 62 60 59 58 57 56 55 55
50 51 55 55 55 60 60 64 64 64 64 64 62 61 62 62 62 62 62 62 62 62 63 63 64 64 64 64 65 66 65 64 64 64 63 62 61 60 58 57 56 56 55
44 43 46 50 53 57 61 60 63 62 62 64 60 60 58 60 61 62 62 62 62 62 62 62 63 63 64 64 64 65 65 64 63 64 63 62 62 61 59 58 57 56 56
39 43 45 46 50 54 59 58 60 62 60 62 63 57 56 56 58 61 62 62 62 62 62 62 62 62 63 63 64 64 64 64 63 63 63 62 62 62 60 59 58 56 56
37 39 41 42 46 50 53 59 59 58 60 59 61 62 58 57 55 55 60 61 62 61 61 62 61 61 61 62 62 62 62 63 63 63 63 62 61 62 61 59 58 57 56
34 36 40 43 45 48 51 55 59 57 58 59 60 59 59 58 58 56 54 59 61 61 61 61 61 61 61 61 61 61 60 60 61 62 62 62 61 61 62 61 59 58 57
34 35 37 39 43 48 51 55 56 59 59 60 60 59 57 56 56 56 55 56 58 59 61 61 61 61 61 60 60 60 59 59 59 59 60 61 61 62 62 61 60 58 57
35 35 37 39 40 42 45 46 48 54 59 61 60 59 58 58 58 57 56 54 55 58 59 61 61 61 60 60 60 59 58 57 57 58 58 59 60 62 61 61 61 59 58
36 37 38 38 39 41 42 44 47 48 53 60 60 61 60 61 60 60 58 57 54 54 57 58 60 61 61 61 60 59 59 56 55 55 55 56 58 59 60 61 61 59 58
39 40 40 40 40 41 42 45 46 47 52 58 59 60 60 60 60 58 55 55 55 51 53 56 57 60 61 61 61 60 60 58 55 55 55 55 56 57 58 59 60 59 59
37 38 40 40 42 42 43 44 45 47 49 53 58 59 58 59 58 57 57 56 57 57 54 55 56 58 60 61 60 60 60 60 56 55 54 53 54 55 56 57 58 58 58
34 35 36 38 43 45 46 47 47 47 49 53 57 58 57 56 56 56 55 55 57 58 56 56 55 57 59 60 60 60 60 59 59 55 53 53 53 53 54 55 56 57 57
33 33 34 34 35 37 41 45 48 50 52 54 56 56 56 56 54 54 55 56 55 56 57 55 57 56 57 59 60 59 59 60 59 57 54 52 52 51 52 52 53 54 55
30 31 31 32 32 33 35 39 42 45 42 42 43 45 45 52 55 55 56 56 56 56 56 56 55 56 56 57 59 58 58 58 58 59 56 54 51 51 51 50 51 52 52
27 29 29 30 31 31 33 34 35 36 36 37 38 38 37 37 40 43 50 57 55 55 55 56 56 56 56 56 57 57 55 57 57 57 57 56 53 51 50 49 49 50 50
25 26 28 29 29 30 30 31 32 32 32 33 34 35 37 36 35 36 39 37 43 54 56 57 56 55 55 55 55 55 55 55 55 56 56 56 54 52 52 49 49 48 48
22 24 25 27 28 29 31 30 29 29 29 29 30 31 32 33 34 33 33 33 32 41 38 39 55 54 50 45 44 48 50 52 51 44 50 54 55 54 54 49 41 43 44
20 22 23 26 26 28 30 30 29 27 26 26 27 27 28 30 32 32 31 30 31 31 31 31 28 28 30 29 33 38 40 42 44 40 39 44 46 48 42 38 37 38 39
19 20 21 22 24 25 27 28 28 26 25 26 26 26 26 27 29 30 28 27 27 28 30 30 28 29 29 29 30 31 31 33 35 35 36 39 37 41 36 35 35 35 36
17 19 20 21 20 21 23 24 24 23 23 23 24 26 26 26 28 28 26 26 25 26 29 29 29 29 29 30 29 29 29 32 34 33 27 31 34 35 33 32 32 33 33
16 17 18 20 19 19 19 19 21 21 21 20 21 23 24 24 24 25 23 23 23 24 25 25 25 26 26 26 27 26 25 25 27 31 25 26 31 32 35 29 29 30 30